Weather Roundup
Issued by NWS Springfield, MO

Home | Current Version | Previous Version | Text Only | Print | Product List | Glossary On
Versions: 1 2 3 4 5 6 7 8 9 10 11 12 13 14 15 16 17 18 19 20 21 22 23 24 25 26 27 28 29 30 31 32 33 34 35 36 37 38 39 40 41 42 43 44 45 46 47 48 49 50
000
NZUS99 KSGF 060007
HRRSGF

HOURLY WEATHER
NATIONAL WEATHER SERVICE SPRINGFIELD MO
600 PM CST FRI FEB 05 2016

......SGF CWA......

CITY           SKY/WX    TMP DP  RH WIND       PRES   REMARKS
SPRINGFIELD    PTCLDY    44  17  33 CALM      30.29F
6HR MIN TEMP:  43; 6HR MAX TEMP:  52;

JOPLIN         PTCLDY    47  18  31 CALM      30.30R
6HR MIN TEMP:  47; 6HR MAX TEMP:  52;

WEST PLAINS    CLOUDY    42  16  34 CALM      30.32S
6HR MIN TEMP:  42; 6HR MAX TEMP:  52;

ROLLA          CLEAR     36  21  54 N5        30.31S WCI  32
OSAGE BEACH    CLOUDY    41  19  42 NE5       30.32S
BRANSON        MOCLDY    46  12  25 W3        30.31F

......SURROUNDING SGF CWA......

CITY           SKY/WX    TMP DP  RH WIND       PRES   REMARKS
CHANUTE        PTCLDY    46  23  40 SE5       30.27S
PARSONS        MOCLDY    48  24  39 SE5       30.28S
COFFEYVILLE    PTCLDY    49  22  34 SE8       30.28R
EMPORIA        MOCLDY    45  22  40 SE3       30.24F
GROVE OK       PTCLDY    46  19  34 S6        30.31S
ROGERS AR      CLOUDY    44  16  32 S6        30.31S
SILOAM SPRINGS CLOUDY    46  14  27 S5        30.31S
HARRISON AR    CLOUDY    46  13  26 SW5       30.31S
NEAR YELLVILLE CLOUDY    48  14  25 CALM      30.30S

......KANSAS AND MISSOURI......

CITY           SKY/WX    TMP DP  RH WIND       PRES   REMARKS
KANSAS CTY INT CLOUDY    39  22  50 SE5       30.27F
DOWNTOWN KC    CLOUDY    43  21  41 SE5       30.28F
COLUMBIA       CLEAR     39  14  36 E3        30.33F
SEDALIA        MOCLDY    41  20  43 NE3       30.33R
ST JOSEPH      CLOUDY    38  23  55 SE3       30.30R
ST LOUIS       PTCLDY    38  16  40 NE3       30.37S
SPIRIT OF STL  CLEAR     33  22  63 CALM      30.36S
KIRKSVILLE     CLOUDY    30  21  69 SE7       30.33F WCI  23
WICHITA        PTCLDY    46  27  47 NW8       30.24S
TOPEKA         CLOUDY    40  22  48 E3        30.28R
OLATHE         CLOUDY    40  22  48 S7        30.28F

......TENNESSEE......

CITY           SKY/WX    TMP DP  RH WIND       PRES   REMARKS
MEMPHIS        MOCLDY    49  19  30 CALM      30.40S
NASHVILLE      CLOUDY    43  17  35 CALM      30.40R

......ARKANSAS.......

CITY           SKY/WX    TMP DP  RH WIND       PRES   REMARKS
FAYETTEVILLE   CLOUDY    43  14  31 S3        30.31S
FT SMITH       CLEAR     51   9  18 S3        30.32S
LITTLE ROCK    MOCLDY    48  15  26 SE5       30.37F

......OKLAHOMA.......

CITY           SKY/WX    TMP DP  RH WIND       PRES   REMARKS
TULSA          MOCLDY    51  25  36 SE9       30.26R
PONCA CITY     CLOUDY    49  26  41 SE3       30.24S
MCALESTER      CLEAR     51  22  31 SE3       30.30R
OKLAHOMA CITY  CLOUDY    50  26  39 SE9       30.23R

......IOWA............

CITY           SKY/WX    TMP DP  RH WIND       PRES   REMARKS
DES MOINES     LGT SNOW  29  23  78 S7        30.29S WCI  22
QUAD CITIES    CLOUDY    30  20  66 S6        30.37R WCI  24

......ILLINOIS........

CITY           SKY/WX    TMP DP  RH WIND       PRES   REMARKS
QUINCY         MOCLDY    30  18  60 SE3       30.35F
CHICAGO        CLOUDY    30  19  63 W6        30.34F WCI  24



USA.gov is the U.S. government's official web portal to all federal, state and local government web resources and services.